GENESIS 2

Last updated on Tue Oct 15 2024 00:02:10 GMT+0000 (Coordinated Universal Time)

1 31789U 07028A 24288.09874451 .00036002 00000+0 76201-3 0 9996 2 31789 64.4866 168.9455 0011432 245.7319 114.2623 15.44877281955739
UTC large
Height (km)
Speed (km/s)
/
Latitude / Longitude
Inclination (degrees)
Orbital Period (minutes)
Azimuth
Elevation
Range (km)
Doppler Factor

Next 0 passes for location: London (51.5072 / 0.1276)

Sorry there are no passes over London.